Amritsar, India

3:42 PM IST on April 26, 2017 (GMT +0530)
Amritsar

Weather History for VIAR - October, 2012

Change the Weather History Date:

Thursday, October 18, 2012

  Actual Average Record
Temperature  
Mean Temperature 73 °F -  
Max Temperature 87 °F 85 °F 95 °F (2000)
Min Temperature 59 °F 61 °F 50 °F (2000)
Cooling Degree Days 8    
Growing Degree Days 23 (Base 50)    
Moisture  
Dew Point 63 °F    
Average Humidity 79    
Maximum Humidity 94    
Minimum Humidity 37    
Precipitation  
Precipitation 0.00 in - - ()
Sea Level Pressure  
Sea Level Pressure 29.98 in    
Wind  
Wind Speed 0 mph ()    
Max Wind Speed 7 mph    
Max Gust Speed -    
Visibility 2.1 miles    
Events      
Averages and records for this station are not official NWS values.
T = Trace of Precipitation, MM = Missing Value Source: Averaged Metar Reports

Daily Weather History Graph

Daily Weather History Graph

Search for Another Location

Airport or City:

Trip Planner

Search our weather history database for the weather conditions in past years. The results will help you decide how hot, cold, wet, or windy it might be!

Date:

Astronomy

Oct. 18, 2012 Rise Set
Actual Time 6:35 AM IST 5:54 PM IST
Civil Twilight 6:11 AM IST 6:19 PM IST
Nautical Twilight 5:42 AM IST 6:47 PM IST
Astronomical Twilight 5:14 AM IST 7:16 PM IST
Moon 9:35 AM IST (10/18) 8:14 PM IST (10/18)
Length of Visible Light 12h 08m
Length of Day
11h 19m
Waxing Crescent, 11% of the Moon is Illuminated
Oct 18
Waxing Crescent
Oct 22
First Quarter
Oct 30
Full
Nov 7
Last Quarter
Nov 14
New

Hourly Weather History & Observations

Time (IST) Temp. Heat Index Dew Point Humidity Pressure Visibility Wind Dir Wind Speed Gust Speed Precip Events Conditions
12:00 AM 66.2 °F - 64.4 °F 94% 30.01 in 1.9 mi Calm Calm - N/A   Mist
2:00 AM 66.2 °F - 64.4 °F 94% 30.01 in 1.9 mi Calm Calm - N/A   Mist
3:00 AM 60.8 °F - 59.0 °F 94% 29.98 in 1.2 mi Calm Calm - N/A   Mist
3:30 AM 60.8 °F - 59.0 °F 94% 29.98 in 1.2 mi Calm Calm - N/A   Mist
4:30 AM 60.8 °F - 59.0 °F 94% 29.98 in 1.2 mi Calm Calm - N/A   Mist
5:00 AM 60.8 °F - 59.0 °F 94% 29.98 in 1.2 mi Calm Calm - N/A   Mist
5:30 AM 59.0 °F - 57.2 °F 94% 29.98 in 1.2 mi Calm Calm - N/A   Mist
7:30 AM 60.8 °F - 59.0 °F 94% 30.01 in 0.9 mi Calm Calm - N/A   Mist
8:30 AM 63 °F - 60 °F 85% 30.03 in 1 mi Calm Calm - -   Mist
9:00 AM 64.4 °F - 60.8 °F 88% 30.04 in 1.6 mi Calm Calm - N/A   Mist
10:00 AM 69.8 °F - 64.4 °F 83% 30.04 in 2.5 mi Calm Calm - N/A   Haze
11:30 AM 78 °F - 67 °F 62% 30.01 in 2 mi Calm Calm - -   Haze
12:30 PM 82.4 °F 85.4 °F 68.0 °F 62% 30.04 in 3.7 mi Calm Calm - N/A   Unknown
2:30 PM 87 °F - 65 °F 37% 29.92 in 2 mi WSW 3.5 mph - -  
4:30 PM 84.2 °F 85.6 °F 64.4 °F 51% 29.92 in 3.7 mi West 6.9 mph - N/A   Unknown
5:00 PM 84.2 °F 84.4 °F 60.8 °F 45% 29.92 in 3.7 mi West 4.6 mph - N/A   Unknown
8:00 PM 80.6 °F 81.8 °F 62.6 °F 54% 29.92 in 3.1 mi Calm Calm - N/A   Unknown
10:00 PM 71.6 °F - 68.0 °F 88% 29.95 in 2.5 mi Calm Calm - N/A   Mist
11:00 PM 68.0 °F - 64.4 °F 88% 29.98 in 2.5 mi Calm Calm - N/A   Mist
11:30 PM 68 °F - 64 °F 82% 29.95 in 2 mi Calm Calm - -   Mist